This is the latest recevied weather packets stored in our database for station/object N6GPM. If no packets are shown the sender has not sent any weather packets the latest 10 day(s).
| Time | Temp. | Humidity | Pressure | Rain* | Wind** | Luminosity | Snow |
|---|---|---|---|---|---|---|---|
| 1777663389 | 20° C | 68% | 1017.4 hPa | 0 mm | - | 754 W/m² | - |
| 1777663086 | 19.44° C | 66% | 1017.6 hPa | 0 mm | - | 713 W/m² | - |
| 1777662783 | 20° C | 68% | 1017.6 hPa | 0 mm | - | 713 W/m² | - |
| 1777662480 | 19.44° C | 68% | 1017.8 hPa | 0 mm | - | 729 W/m² | - |
| 1777662175 | 20° C | 68% | 1017.7 hPa | 0 mm | - | 769 W/m² | - |
| 1777661871 | 20° C | 69% | 1017.9 hPa | 0 mm | - | 776 W/m² | - |
| 1777661567 | 20° C | 68% | 1018 hPa | 0 mm | - | 748 W/m² | - |
| 1777661263 | 19.44° C | 70% | 1017.7 hPa | 0 mm | - | 823 W/m² | - |
| 1777660958 | 18.89° C | 70% | 1018 hPa | 0 mm | - | 832 W/m² | - |
| 1777660654 | 18.89° C | 70% | 1018.1 hPa | 0 mm | - | 847 W/m² | - |
| 1777660352 | 18.33° C | 73% | 1018 hPa | 0 mm | - | 838 W/m² | - |
| 1777660048 | 18.33° C | 74% | 1018.1 hPa | 0 mm | - | 844 W/m² | - |
| 1777659745 | 18.33° C | 74% | 1018.1 hPa | 0 mm | - | 830 W/m² | - |
| 1777659442 | 17.78° C | 74% | 1018.2 hPa | 0 mm | - | 863 W/m² | - |
| 1777659140 | 17.78° C | 73% | 1018.3 hPa | 0 mm | - | 882 W/m² | - |
| 1777658838 | 17.78° C | 73% | 1018.3 hPa | 0 mm | - | 879 W/m² | - |
| 1777658533 | 17.78° C | 74% | 1018.4 hPa | 0 mm | - | 872 W/m² | - |
| 1777658230 | 17.78° C | 74% | 1018.4 hPa | 0 mm | - | 875 W/m² | - |
| 1777657927 | 17.78° C | 73% | 1018.3 hPa | 0 mm | - | 875 W/m² | - |
| 1777657623 | 17.78° C | 73% | 1018.2 hPa | 0 mm | - | 850 W/m² | - |
| 1777657321 | 17.78° C | 74% | 1018.4 hPa | 0 mm | - | 825 W/m² | - |
| 1777657018 | 17.22° C | 75% | 1018.5 hPa | 0 mm | - | 808 W/m² | - |
| 1777656715 | 16.67° C | 76% | 1018.3 hPa | 0 mm | - | 801 W/m² | - |
| 1777656411 | 16.67° C | 75% | 1018.4 hPa | 0 mm | - | 797 W/m² | - |
| 1777656106 | 16.67° C | 77% | 1018.4 hPa | 0 mm | - | 813 W/m² | - |
* Rain latest hour (hover to see other rain measurements)
** Current wind speed in m/s (hover to see current wind gust speed)